| time (UTC) | temp F | wind direction | speed MPH | gust MPH | rain 1hr in | rain 24hr in | rain mn in | humidity % | barometer mb |
| 20260506221516 | 51 | 262 | 1.0 | 3.0 | 0.02 | 0.78 | 0.78 | 91 | 1007.7 |
| 20260506220516 | 51 | 230 | 3.0 | 6.0 | 0.01 | 0.77 | 0.77 | 90 | 1007.4 |
| 20260506215516 | 53 | 245 | 3.0 | 11.0 | 0.01 | 0.77 | 0.77 | 90 | 1007.1 |
| 20260506214516 | 55 | 18 | 3.0 | 10.0 | 0.01 | 0.77 | 0.77 | 92 | 1006.7 |
| 20260506213536 | 56 | 234 | 3.0 | 10.0 | 0.00 | 0.76 | 0.76 | 92 | 1006.4 |
| 20260506212516 | 56 | 237 | 3.0 | 13.0 | 0.00 | 0.76 | 0.76 | 92 | 1006.5 |
| 20260506211516 | 56 | 236 | 2.0 | 8.0 | 0.00 | 0.76 | 0.76 | 92 | 1006.4 |
| 20260506210516 | 56 | 192 | 3.0 | 7.0 | 0.00 | 0.76 | 0.76 | 93 | 1006.2 |
| 20260506205516 | 56 | 192 | 2.0 | 6.0 | 0.01 | 0.76 | 0.76 | 93 | 1006.2 |
| 20260506204516 | 56 | 186 | 2.0 | 13.0 | 0.01 | 0.76 | 0.76 | 92 | 1006.3 |
| 20260506203516 | 56 | 228 | 3.0 | 10.0 | 0.01 | 0.76 | 0.76 | 92 | 1006.3 |
| 20260506202516 | 56 | 226 | 5.0 | 12.0 | 0.01 | 0.76 | 0.76 | 92 | 1006.2 |
| 20260506201516 | 56 | 195 | 3.0 | 6.0 | 0.01 | 0.76 | 0.76 | 92 | 1006.3 |
| 20260506200536 | 56 | 217 | 4.0 | 13.0 | 0.01 | 0.76 | 0.76 | 92 | 1006.5 |
| 20260506195516 | 56 | 222 | 4.0 | 9.0 | 0.00 | 0.75 | 0.75 | 92 | 1006.5 |
| 20260506194556 | 56 | 228 | 4.0 | 12.0 | 0.00 | 0.75 | 0.75 | 92 | 1006.5 |
| 20260506193516 | 56 | 207 | 4.0 | 8.0 | 0.01 | 0.75 | 0.75 | 92 | 1006.7 |
| 20260506192516 | 56 | 212 | 4.0 | 10.0 | 0.02 | 0.75 | 0.75 | 92 | 1006.8 |
| 20260506191516 | 56 | 201 | 4.0 | 15.0 | 0.02 | 0.75 | 0.75 | 92 | 1006.8 |
| 20260506190516 | 56 | 230 | 3.0 | 10.0 | 0.04 | 0.75 | 0.75 | 92 | 1006.9 |
| 20260506185516 | 56 | 224 | 4.0 | 12.0 | 0.07 | 0.75 | 0.75 | 93 | 1007.0 |
| 20260506184516 | 56 | 207 | 2.0 | 7.0 | 0.09 | 0.75 | 0.75 | 93 | 1007.0 |
| 20260506183516 | 56 | 185 | 2.0 | 11.0 | 0.11 | 0.74 | 0.74 | 93 | 1007.0 |
| 20260506182516 | 56 | 169 | 2.0 | 7.0 | 0.14 | 0.73 | 0.73 | 93 | 1007.0 |
| 20260506181516 | 56 | 166 | 2.0 | 6.0 | 0.16 | 0.73 | 0.73 | 93 | 1007.1 |
| 20260506180516 | 56 | 201 | 3.0 | 7.0 | 0.15 | 0.71 | 0.71 | 93 | 1007.2 |
| 20260506175536 | 56 | 184 | 2.0 | 4.0 | 0.13 | 0.68 | 0.68 | 93 | 1007.3 |
| 20260506174536 | 56 | 209 | 2.0 | 5.0 | 0.16 | 0.66 | 0.66 | 93 | 1007.3 |
| 20260506173516 | 56 | 195 | 3.0 | 8.0 | 0.16 | 0.63 | 0.63 | 92 | 1007.2 |
| 20260506172516 | 56 | 206 | 3.0 | 8.0 | 0.16 | 0.59 | 0.59 | 93 | 1007.3 |
| 20260506171516 | 56 | 211 | 4.0 | 10.0 | 0.17 | 0.57 | 0.57 | 93 | 1007.3 |
| 20260506170516 | 0 | 177 | 5.0 | 5.0 | 0.18 | 0.56 | 0.56 | ||
| 20260506165536 | 56 | 196 | 2.0 | 6.0 | 0.19 | 0.55 | 0.55 | 93 | 1007.4 |
| 20260506164536 | 56 | 181 | 4.0 | 12.0 | 0.17 | 0.50 | 0.50 | 92 | 1007.3 |
| 20260506163516 | 56 | 152 | 4.0 | 11.0 | 0.16 | 0.47 | 0.47 | 92 | 1007.4 |
| 20260506162516 | 55 | 183 | 5.0 | 10.0 | 0.13 | 0.43 | 0.43 | 92 | 1007.5 |
| 20260506161516 | 55 | 176 | 3.0 | 12.0 | 0.12 | 0.40 | 0.40 | 92 | 1007.7 |
| 20260506160516 | 55 | 179 | 5.0 | 11.0 | 0.12 | 0.38 | 0.38 | 92 | 1007.9 |
| 20260506155516 | 55 | 194 | 3.0 | 10.0 | 0.12 | 0.36 | 0.36 | 92 | 1007.8 |
| 20260506154516 | 55 | 184 | 4.0 | 12.0 | 0.12 | 0.33 | 0.33 | 92 | 1007.9 |
| 20260506153516 | 55 | 182 | 3.0 | 9.0 | 0.13 | 0.31 | 0.31 | 92 | 1007.8 |
| 20260506152536 | 55 | 183 | 4.0 | 10.0 | 0.14 | 0.30 | 0.30 | 92 | 1007.9 |
| 20260506151516 | 55 | 176 | 2.0 | 9.0 | 0.13 | 0.28 | 0.28 | 91 | 1008.0 |
| 20260506150516 | 55 | 216 | 4.0 | 10.0 | 0.13 | 0.26 | 0.26 | 91 | 1008.1 |
| 20260506145516 | 55 | 181 | 4.0 | 8.0 | 0.13 | 0.24 | 0.24 | 91 | 1008.3 |
| 20260506144516 | 55 | 207 | 5.0 | 12.0 | 0.12 | 0.21 | 0.21 | 91 | 1008.5 |
| 20260506143516 | 55 | 194 | 3.0 | 10.0 | 0.12 | 0.18 | 0.18 | 91 | 1008.4 |
| 20260506142516 | 55 | 179 | 4.0 | 8.0 | 0.12 | 0.16 | 0.16 | 91 | 1008.6 |
| 20260506141516 | 56 | 193 | 4.0 | 13.0 | 0.12 | 0.15 | 0.15 | 91 | 1008.7 |
| 20260506140516 | 56 | 192 | 4.0 | 10.0 | 0.11 | 0.13 | 0.13 | 91 | 1008.9 |
| 20260506135536 | 56 | 178 | 4.0 | 11.0 | 0.09 | 0.11 | 0.11 | 91 | 1008.9 |
| 20260506134516 | 56 | 203 | 4.0 | 10.0 | 0.08 | 0.09 | 0.09 | 91 | 1008.9 |
| 20260506133536 | 56 | 203 | 3.0 | 8.0 | 0.05 | 0.06 | 0.06 | 90 | 1008.9 |
| 20260506132516 | 56 | 207 | 4.0 | 9.0 | 0.03 | 0.04 | 0.04 | 89 | 1008.9 |
| 20260506131516 | 56 | 192 | 4.0 | 12.0 | 0.02 | 0.03 | 0.03 | 89 | 1008.7 |
| 20260506130517 | 56 | 195 | 4.0 | 13.0 | 0.01 | 0.02 | 0.02 | 88 | 1008.6 |
| 20260506125516 | 56 | 189 | 4.0 | 13.0 | 0.02 | 0.02 | 0.02 | 87 | 1008.6 |
| 20260506124536 | 56 | 207 | 4.0 | 11.0 | 0.01 | 0.01 | 0.01 | 87 | 1008.5 |
| 20260506123516 | 56 | 194 | 2.0 | 8.0 | 0.01 | 0.01 | 0.01 | 87 | 1008.5 |
| 20260506122516 | 56 | 188 | 2.0 | 7.0 | 0.01 | 0.01 | 0.01 | 87 | 1008.7 |
| 20260506121516 | 56 | 190 | 2.0 | 6.0 | 0.01 | 0.01 | 0.01 | 86 | 1008.8 |
| 20260506120536 | 56 | 186 | 1.0 | 6.0 | 0.01 | 0.01 | 0.01 | 84 | 1008.9 |
| 20260506115516 | 57 | 213 | 2.0 | 7.0 | 0.00 | 0.00 | 0.00 | 81 | 1009.0 |
| 20260506114516 | 58 | 205 | 3.0 | 7.0 | 0.00 | 0.00 | 0.00 | 77 | 1009.1 |
| 20260506113516 | 58 | 197 | 4.0 | 10.0 | 0.00 | 0.00 | 0.00 | 76 | 1009.1 |
| 20260506112516 | 58 | 186 | 2.0 | 8.0 | 0.00 | 0.00 | 0.00 | 75 | 1009.1 |
| 20260506111516 | 58 | 231 | 4.0 | 11.0 | 0.00 | 0.00 | 0.00 | 74 | 1008.8 |
| 20260506110516 | 58 | 209 | 4.0 | 10.0 | 0.00 | 0.00 | 0.00 | 74 | 1008.7 |
| 20260506105516 | 58 | 211 | 1.0 | 7.0 | 0.00 | 0.00 | 0.00 | 73 | 1008.6 |
| 20260506104516 | 59 | 207 | 2.0 | 6.0 | 0.00 | 0.00 | 0.00 | 72 | 1008.5 |
| 20260506103516 | 59 | 188 | 3.0 | 6.0 | 0.00 | 0.00 | 0.00 | 71 | 1008.5 |
| 20260506102516 | 59 | 203 | 2.0 | 13.0 | 0.00 | 0.00 | 0.00 | 70 | 1008.6 |
| 20260506101516 | 59 | 221 | 4.0 | 11.0 | 0.00 | 0.00 | 0.00 | 69 | 1008.7 |
| 20260506100516 | 59 | 227 | 3.0 | 13.0 | 0.00 | 0.00 | 0.00 | 69 | 1008.5 |
| 20260506095516 | 59 | 213 | 2.0 | 6.0 | 0.00 | 0.00 | 0.00 | 69 | 1008.4 |
| 20260506094516 | 60 | 203 | 3.0 | 11.0 | 0.00 | 0.00 | 0.00 | 68 | 1008.4 |
| 20260506093537 | 60 | 210 | 3.0 | 12.0 | 0.00 | 0.00 | 0.00 | 67 | 1008.6 |
| 20260506092516 | 60 | 179 | 4.0 | 14.0 | 0.00 | 0.00 | 0.00 | 67 | 1008.6 |
| 20260506091516 | 60 | 251 | 5.0 | 13.0 | 0.00 | 0.00 | 0.00 | 67 | 1008.7 |
| 20260506090556 | 60 | 226 | 4.0 | 11.0 | 0.00 | 0.00 | 0.00 | 67 | 1008.7 |
| 20260506085516 | 60 | 222 | 2.0 | 8.0 | 0.00 | 0.00 | 0.00 | 66 | 1008.6 |
| 20260506084516 | 60 | 168 | 2.0 | 7.0 | 0.00 | 0.00 | 0.00 | 66 | 1008.6 |
| 20260506083516 | 60 | 219 | 3.0 | 10.0 | 0.00 | 0.00 | 0.00 | 65 | 1008.7 |
| 20260506082537 | 60 | 230 | 5.0 | 14.0 | 0.00 | 0.00 | 0.00 | 65 | 1008.8 |
| 20260506081516 | 60 | 227 | 4.0 | 13.0 | 0.00 | 0.00 | 0.00 | 66 | 1008.9 |
| 20260506080516 | 60 | 208 | 4.0 | 12.0 | 0.00 | 0.00 | 0.00 | 66 | 1008.9 |
| 20260506073516 | 60 | 207 | 2.0 | 7.0 | 0.00 | 0.00 | 0.00 | 66 | 1009.1 |
| 20260506072516 | 60 | 181 | 3.0 | 8.0 | 0.00 | 0.00 | 0.00 | 66 | 1009.1 |
| 20260506071516 | 60 | 192 | 3.0 | 10.0 | 0.00 | 0.00 | 0.00 | 66 | 1009.3 |
| 20260506070516 | 60 | 190 | 3.0 | 9.0 | 0.00 | 0.00 | 0.00 | 66 | 1009.1 |
| 20260506062516 | 61 | 169 | 2.0 | 7.0 | 0.00 | 0.00 | 0.00 | 64 | 1009.6 |
| 20260506061516 | 61 | 210 | 3.0 | 8.0 | 0.00 | 0.00 | 0.00 | 63 | 1009.7 |
| 20260506060516 | 61 | 204 | 2.0 | 6.0 | 0.00 | 0.00 | 0.00 | 63 | 1009.6 |
| 20260506050536 | 62 | 174 | 3.0 | 15.0 | 0.00 | 0.00 | 0.00 | 61 | 1009.8 |
| 20260506044516 | 62 | 208 | 4.0 | 14.0 | 0.00 | 0.00 | 0.00 | 61 | 1010.0 |
| 20260506043516 | 61 | 220 | 2.0 | 9.0 | 0.00 | 0.00 | 0.00 | 62 | 1010.0 |
| 20260506042516 | 62 | 214 | 2.0 | 8.0 | 0.00 | 0.00 | 0.00 | 62 | 1010.1 |
| 20260506041537 | 62 | 194 | 3.0 | 11.0 | 0.00 | 0.00 | 0.00 | 62 | 1010.0 |
| 20260506040516 | 62 | 194 | 3.0 | 10.0 | 0.00 | 0.00 | 0.00 | 62 | 1010.1 |
| 20260506035516 | 62 | 187 | 3.0 | 11.0 | 0.00 | 0.00 | 0.00 | 61 | 1010.2 |
| 20260506034516 | 62 | 168 | 2.0 | 6.0 | 0.00 | 0.00 | 0.00 | 61 | 1010.1 |
| 20260506033536 | 63 | 171 | 2.0 | 7.0 | 0.00 | 0.00 | 0.00 | 61 | 1010.0 |
| 20260506032516 | 63 | 165 | 2.0 | 11.0 | 0.00 | 0.00 | 0.00 | 61 | 1009.9 |
| 20260506031536 | 63 | 180 | 3.0 | 13.0 | 0.00 | 0.00 | 0.00 | 61 | 1009.9 |
| 20260506030516 | 63 | 180 | 3.0 | 9.0 | 0.00 | 0.00 | 0.00 | 62 | 1009.9 |
| 20260506025516 | 63 | 187 | 2.0 | 8.0 | 0.00 | 0.00 | 0.00 | 64 | 1009.9 |
| 20260506024516 | 63 | 239 | 2.0 | 5.0 | 0.00 | 0.00 | 0.00 | 63 | 1010.0 |
| 20260506023536 | 63 | 221 | 2.0 | 9.0 | 0.00 | 0.00 | 0.00 | 62 | 1010.0 |
| 20260506022516 | 63 | 223 | 1.0 | 3.0 | 0.00 | 0.00 | 0.00 | 63 | 1010.0 |
| 20260506021516 | 63 | 227 | 2.0 | 4.0 | 0.00 | 0.00 | 0.00 | 63 | 1010.0 |
| 20260506020516 | 64 | 221 | 1.0 | 3.0 | 0.00 | 0.00 | 0.00 | 62 | 1010.0 |
| 20260506015516 | 64 | 188 | 0.0 | 2.0 | 0.00 | 0.00 | 0.00 | 62 | 1010.0 |
| 20260506014516 | 64 | 224 | 1.0 | 3.0 | 0.00 | 0.00 | 0.00 | 62 | 1009.9 |
| 20260506013516 | 64 | 236 | 0.0 | 1.0 | 0.00 | 0.00 | 0.00 | 62 | 1009.8 |
| 20260506012516 | 63 | 269 | 1.0 | 3.0 | 0.00 | 0.00 | 0.00 | 64 | 1009.8 |
| 20260506011516 | 63 | 260 | 0.0 | 2.0 | 0.00 | 0.00 | 0.00 | 63 | 1009.8 |
| 20260506010557 | 64 | 274 | 0.0 | 3.0 | 0.00 | 0.00 | 0.00 | 64 | 1009.6 |
| 20260506005516 | 64 | 238 | 0.0 | 1.0 | 0.00 | 0.00 | 0.00 | 63 | 1009.7 |
| 20260506004517 | 64 | 159 | 1.0 | 2.0 | 0.00 | 0.00 | 0.00 | 64 | 1009.5 |
| 20260506003517 | 64 | 181 | 1.0 | 6.0 | 0.00 | 0.00 | 0.00 | 62 | 1009.5 |
| 20260506002517 | 64 | 203 | 0.0 | 3.0 | 0.00 | 0.00 | 0.00 | 63 | 1009.4 |
| 20260506001517 | 64 | 188 | 1.0 | 4.0 | 0.00 | 0.00 | 0.00 | 64 | 1009.3 |
| 20260506000517 | 65 | 162 | 0.0 | 2.0 | 0.00 | 0.00 | 0.00 | 64 | 1009.2 |
| 20260505235517 | 66 | 166 | 1.0 | 6.0 | 0.00 | 0.00 | 0.00 | 60 | 1009.2 |
| 20260505234517 | 65 | 209 | 1.0 | 3.0 | 0.00 | 0.00 | 0.00 | 58 | 1009.1 |
| 20260505233517 | 64 | 209 | 1.0 | 4.0 | 0.00 | 0.00 | 0.00 | 61 | 1009.1 |
| 20260505232517 | 64 | 346 | 0.0 | 2.0 | 0.00 | 0.00 | 0.00 | 63 | 1009.1 |
| 20260505231517 | 65 | 352 | 0.0 | 2.0 | 0.00 | 0.00 | 0.00 | 63 | 1009.0 |
| 20260505230517 | 65 | 0.0 | 0.0 | 0.00 | 0.00 | 0.00 | 63 | 1008.9 | |
| 20260505225517 | 65 | 352 | 0.0 | 2.0 | 0.00 | 0.00 | 0.00 | 61 | 1008.9 |
| 20260505224538 | 65 | 352 | 0.0 | 2.0 | 0.00 | 0.00 | 0.00 | 62 | 1008.9 |
| 20260505223517 | 65 | 13 | 1.0 | 3.0 | 0.00 | 0.00 | 0.00 | 63 | 1008.8 |
| 20260505222517 | 65 | 314 | 0.0 | 2.0 | 0.00 | 0.00 | 0.00 | 62 | 1008.8 |